This is the latest recevied weather packets stored in our database for station/object KF7SOJ. If no packets are shown the sender has not sent any weather packets the latest 10 day(s).
| Time | Temp. | Humidity | Pressure | Rain* | Wind** | Luminosity | Snow |
|---|---|---|---|---|---|---|---|
| 1787964780 | 26.11° C | 41% | 930.3 hPa | 0 mm | - | 110 W/m² | - |
| 1787964480 | 26.67° C | 39% | 930.2 hPa | 0 mm | - | 133 W/m² | - |
| 1787964175 | 26.67° C | 40% | 930.2 hPa | 0 mm | - | 158 W/m² | - |
| 1787963875 | 26.67° C | 41% | 930.2 hPa | 0 mm | - | 160 W/m² | - |
| 1787963569 | 26.11° C | 42% | 930.3 hPa | 0 mm | - | 172 W/m² | - |
| 1787963265 | 26.11° C | 42% | 930.6 hPa | 0 mm | - | 163 W/m² | - |
| 1787962964 | 26.11° C | 42% | 930.6 hPa | 0 mm | - | 189 W/m² | - |
| 1787962663 | 26.11° C | 41% | 930.6 hPa | 0 mm | - | 220 W/m² | - |
| 1787962358 | 26.11° C | 40% | 930.6 hPa | 0 mm | - | 182 W/m² | - |
| 1787962053 | 26.67° C | 40% | 930.7 hPa | 0 mm | - | 233 W/m² | - |
| 1787961746 | 26.67° C | 39% | 930.5 hPa | 0 mm | - | 227 W/m² | - |
| 1787961446 | 26.67° C | 41% | 930.5 hPa | 0 mm | - | 321 W/m² | - |
| 1787961145 | 26.11° C | 42% | 930.6 hPa | 0 mm | - | 290 W/m² | - |
| 1787960844 | 26.11° C | 43% | 930.8 hPa | 0 mm | - | 302 W/m² | - |
| 1787960540 | 26.11° C | 42% | 930.7 hPa | 0 mm | - | 330 W/m² | - |
| 1787960239 | 25.56° C | 43% | 930.8 hPa | 0 mm | - | 335 W/m² | - |
| 1787959940 | 25.56° C | 43% | 930.7 hPa | 0 mm | - | 325 W/m² | - |
| 1787959633 | 25.56° C | 44% | 930.7 hPa | 0 mm | - | 384 W/m² | - |
| 1787959333 | 25° C | 45% | 930.4 hPa | 0 mm | - | 447 W/m² | - |
| 1787959034 | 25° C | 45% | 930.3 hPa | 0 mm | - | 186 W/m² | - |
| 1787958729 | 25° C | 45% | 930.5 hPa | 0 mm | - | 174 W/m² | - |
| 1787958424 | 25° C | 45% | 930.5 hPa | 0 mm | - | 155 W/m² | - |
| 1787958120 | 26.11° C | 43% | 930.5 hPa | 0 mm | - | 149 W/m² | - |
| 1787957818 | 26.11° C | 43% | 930.7 hPa | 0 mm | - | 456 W/m² | - |
| 1787957513 | 25.56° C | 42% | 931 hPa | 0 mm | - | 528 W/m² | - |
* Rain latest hour (hover to see other rain measurements)
** Current wind speed in m/s (hover to see current wind gust speed)